Location: Unspecified
(43.3830°N, 0.0000°E)
Time: 17:58:35
(UTC+00:00)

Transit 2A - Pass Details

Date: 20 June 2019
Orbit: 596 x 962 km, 66.7° (Epoch: 16 August)

Event Time Altitude Azimuth Distance (km) Brightness Sun altitude
Rises 03:17:09 0° 274° (W) 3,646 9.1 -9.5°
Reaches altitude 10° 03:21:10 10° 298° (WNW) 2,691 8.6 -9.0°
Maximum altitude 03:24:24 14° 329° (NNW) 2,373 8.7 -8.6°
Drops below altitude 10° 03:27:35 10° 1° (N) 2,634 9.5 -8.1°
Sets 03:31:28 0° 25° (NNE) 3,518 10.9 -7.6°
